Time,TemperatureF,DewpointF,PressureIn,WindDirection,WindDirectionDegrees,WindSpeedMPH,WindSpeedGustMPH,Humidity,HourlyPrecipIn,Conditions,Clouds,dailyrainin,SoftwareType,DateUTC
2013-02-04 00:03:00,40.5,31.8,30.55,NW,315,1.6,3.8,71,0.00,,,0.08,pywws,2013-02-03 23:03:00,
2013-02-04 00:04:00,40.6,32.0,30.56,North,0,0.7,2.2,71,0.00,,,0.00,pywws,2013-02-03 23:04:00,
2013-02-04 00:09:00,39.2,30.6,30.56,NE,45,0.7,2.2,71,0.00,,,0.00,pywws,2013-02-03 23:09:00,
2013-02-04 00:14:00,39.6,30.9,30.55,North,0,1.6,3.8,71,0.00,,,0.00,pywws,2013-02-03 23:14:00,
2013-02-04 00:19:00,40.3,31.3,30.55,NW,315,3.1,5.4,70,0.00,,,0.00,pywws,2013-02-03 23:19:00,
2013-02-04 00:24:00,40.1,31.1,30.56,NW,315,2.2,3.1,70,0.00,,,0.00,pywws,2013-02-03 23:24:00,
2013-02-04 00:29:00,39.9,30.9,30.56,NW,315,0.7,3.1,70,0.00,,,0.00,pywws,2013-02-03 23:29:00,
2013-02-04 00:34:00,39.2,30.6,30.56,North,0,1.6,3.1,71,0.00,,,0.00,pywws,2013-02-03 23:34:00,
2013-02-04 00:39:00,39.9,30.9,30.57,North,0,2.2,4.5,70,0.00,,,0.00,pywws,2013-02-03 23:39:00,
2013-02-04 00:44:00,39.9,30.9,30.57,West,270,2.2,3.1,70,0.00,,,0.00,pywws,2013-02-03 23:44:00,
2013-02-04 00:49:00,39.4,30.4,30.56,NW,315,3.8,5.4,70,0.00,,,0.00,pywws,2013-02-03 23:49:00,
2013-02-04 00:54:00,39.9,30.9,30.57,NW,315,3.8,5.4,70,0.00,,,0.00,pywws,2013-02-03 23:54:00,
2013-02-04 01:04:00,39.9,30.6,30.57,NW,315,1.6,3.1,69,0.00,,,0.00,pywws,2013-02-04 00:04:00,
2013-02-04 01:05:00,39.6,30.6,30.57,North,0,3.1,5.4,70,0.00,,,0.00,pywws,2013-02-04 00:05:00,
2013-02-04 01:09:00,39.6,30.2,30.57,North,0,2.2,3.8,69,0.00,,,0.00,pywws,2013-02-04 00:09:00,
2013-02-04 01:14:00,40.1,30.8,30.58,North,0,2.2,4.5,69,0.00,,,0.00,pywws,2013-02-04 00:14:00,
2013-02-04 01:19:00,39.7,30.4,30.58,NW,315,1.6,2.2,69,0.00,,,0.00,pywws,2013-02-04 00:19:00,
2013-02-04 01:24:00,38.8,29.2,30.58,North,0,1.6,5.4,68,0.00,,,0.00,pywws,2013-02-04 00:24:00,
2013-02-04 01:29:00,38.7,29.0,30.58,North,0,3.1,4.5,68,0.00,,,0.00,pywws,2013-02-04 00:29:00,
2013-02-04 01:34:00,38.3,28.7,30.59,NW,315,3.8,6.0,68,0.00,,,0.00,pywws,2013-02-04 00:34:00,
2013-02-04 01:39:00,38.7,28.7,30.59,NW,315,3.8,6.0,67,0.00,,,0.00,pywws,2013-02-04 00:39:00,
2013-02-04 01:44:00,39.4,29.3,30.59,NW,315,3.1,5.4,67,0.00,,,0.00,pywws,2013-02-04 00:44:00,
2013-02-04 01:49:00,38.8,28.8,30.60,NW,315,2.2,4.5,67,0.00,,,0.00,pywws,2013-02-04 00:49:00,
2013-02-04 02:03:00,38.8,28.8,30.60,NW,315,2.2,3.8,67,0.00,,,0.00,pywws,2013-02-04 01:03:00,
2013-02-04 02:04:00,39.0,29.0,30.61,North,0,2.2,3.1,67,0.00,,,0.00,pywws,2013-02-04 01:04:00,
2013-02-04 02:09:00,39.2,29.2,30.62,North,0,3.8,5.4,67,0.00,,,0.00,pywws,2013-02-04 01:09:00,
2013-02-04 02:14:00,38.5,28.1,30.62,NW,315,3.1,4.5,66,0.00,,,0.00,pywws,2013-02-04 01:14:00,
2013-02-04 02:19:00,38.1,27.8,30.61,NW,315,2.2,4.5,66,0.00,,,0.00,pywws,2013-02-04 01:19:00,
2013-02-04 02:24:00,38.7,28.3,30.62,NW,315,2.2,3.8,66,0.00,,,0.00,pywws,2013-02-04 01:24:00,
2013-02-04 02:29:00,38.7,28.3,30.63,North,0,3.8,5.4,66,0.00,,,0.00,pywws,2013-02-04 01:29:00,
2013-02-04 02:34:00,39.0,28.6,30.62,NE,45,2.2,3.8,66,0.00,,,0.00,pywws,2013-02-04 01:34:00,
2013-02-04 02:39:00,38.5,28.1,30.62,North,0,2.2,4.5,66,0.00,,,0.00,pywws,2013-02-04 01:39:00,
2013-02-04 02:44:00,38.3,28.3,30.63,North,0,1.6,3.8,67,0.00,,,0.00,pywws,2013-02-04 01:44:00,
2013-02-04 02:49:00,37.9,28.3,30.63,North,0,0.7,3.1,68,0.00,,,0.00,pywws,2013-02-04 01:49:00,
2013-02-04 02:54:00,38.1,28.5,30.63,NW,315,1.6,3.8,68,0.00,,,0.00,pywws,2013-02-04 01:54:00,
2013-02-04 03:04:00,37.4,27.8,30.63,NW,315,1.6,3.8,68,0.00,,,0.00,pywws,2013-02-04 02:04:00,
2013-02-04 03:09:00,37.4,27.8,30.63,North,0,0.7,1.6,68,0.00,,,0.00,pywws,2013-02-04 02:09:00,
2013-02-04 03:14:00,37.0,27.5,30.63,North,0,1.6,3.8,68,0.00,,,0.00,pywws,2013-02-04 02:14:00,
2013-02-04 03:19:00,37.0,27.5,30.63,North,0,1.6,3.8,68,0.00,,,0.00,pywws,2013-02-04 02:19:00,
2013-02-04 03:24:00,37.0,27.5,30.63,WNW,292,1.6,2.2,68,0.00,,,0.00,pywws,2013-02-04 02:24:00,
2013-02-04 03:29:00,37.6,28.0,30.63,North,0,0.7,1.6,68,0.00,,,0.00,pywws,2013-02-04 02:29:00,
2013-02-04 03:34:00,37.4,27.8,30.63,NW,315,2.2,3.8,68,0.00,,,0.00,pywws,2013-02-04 02:34:00,
2013-02-04 03:39:00,37.9,28.3,30.63,NW,315,2.2,3.8,68,0.00,,,0.00,pywws,2013-02-04 02:39:00,
2013-02-04 03:44:00,37.8,28.2,30.63,North,0,2.2,3.8,68,0.00,,,0.00,pywws,2013-02-04 02:44:00,
2013-02-04 03:49:00,37.0,27.8,30.63,WNW,292,1.6,3.1,69,0.00,,,0.00,pywws,2013-02-04 02:49:00,
2013-02-04 03:54:00,37.0,27.8,30.63,North,0,1.6,3.1,69,0.00,,,0.00,pywws,2013-02-04 02:54:00,
2013-02-04 04:04:00,36.5,27.3,30.64,North,0,1.6,3.8,69,0.00,,,0.00,pywws,2013-02-04 03:04:00,
2013-02-04 04:09:00,36.1,27.3,30.65,North,0,2.2,3.8,70,0.00,,,0.00,pywws,2013-02-04 03:09:00,
2013-02-04 04:14:00,37.2,28.4,30.65,NW,315,2.2,4.5,70,0.00,,,0.00,pywws,2013-02-04 03:14:00,
2013-02-04 04:19:00,36.3,27.5,30.65,NW,315,2.2,4.5,70,0.00,,,0.00,pywws,2013-02-04 03:19:00,
2013-02-04 04:24:00,36.7,27.8,30.65,NNW,338,3.8,4.5,70,0.00,,,0.00,pywws,2013-02-04 03:24:00,
2013-02-04 04:29:00,36.1,27.3,30.66,NW,315,3.1,4.5,70,0.00,,,0.00,pywws,2013-02-04 03:29:00,
2013-02-04 04:34:00,36.1,27.7,30.66,North,0,0.7,1.6,71,0.00,,,0.00,pywws,2013-02-04 03:34:00,
2013-02-04 04:39:00,35.4,27.0,30.66,NW,315,1.6,3.8,71,0.00,,,0.00,pywws,2013-02-04 03:39:00,
2013-02-04 04:44:00,35.8,27.3,30.66,NW,315,2.2,4.5,71,0.00,,,0.00,pywws,2013-02-04 03:44:00,
2013-02-04 04:49:00,36.7,28.2,30.67,NW,315,0.7,2.2,71,0.00,,,0.00,pywws,2013-02-04 03:49:00,
2013-02-04 05:03:00,36.0,27.5,30.67,North,0,1.6,3.1,71,0.00,,,0.00,pywws,2013-02-04 04:03:00,
2013-02-04 05:04:00,35.4,27.0,30.67,North,0,0.7,2.2,71,0.00,,,0.00,pywws,2013-02-04 04:04:00,
2013-02-04 05:09:00,36.3,27.8,30.68,North,0,1.6,3.8,71,0.00,,,0.00,pywws,2013-02-04 04:09:00,
2013-02-04 05:14:00,36.3,27.5,30.68,North,0,2.2,4.5,70,0.00,,,0.00,pywws,2013-02-04 04:14:00,
2013-02-04 05:19:00,35.2,26.5,30.68,North,0,1.6,2.2,70,0.00,,,0.00,pywws,2013-02-04 04:19:00,
2013-02-04 05:24:00,36.1,27.3,30.68,North,0,1.6,3.8,70,0.00,,,0.00,pywws,2013-02-04 04:24:00,
2013-02-04 05:29:00,36.1,27.3,30.68,North,0,2.2,3.8,70,0.00,,,0.00,pywws,2013-02-04 04:29:00,
2013-02-04 05:34:00,36.0,27.1,30.68,NW,315,1.6,3.8,70,0.00,,,0.00,pywws,2013-02-04 04:34:00,
2013-02-04 05:39:00,36.5,27.3,30.68,NW,315,2.2,4.5,69,0.00,,,0.00,pywws,2013-02-04 04:39:00,
2013-02-04 05:44:00,36.3,27.1,30.68,North,0,2.2,3.8,69,0.00,,,0.00,pywws,2013-02-04 04:44:00,
2013-02-04 05:49:00,35.8,27.0,30.69,NW,315,2.2,3.8,70,0.00,,,0.00,pywws,2013-02-04 04:49:00,
2013-02-04 05:54:00,35.1,26.3,30.69,NW,315,3.1,5.4,70,0.00,,,0.00,pywws,2013-02-04 04:54:00,
2013-02-04 06:04:00,35.2,26.8,30.70,NW,315,2.2,4.5,71,0.00,,,0.00,pywws,2013-02-04 05:04:00,
2013-02-04 06:05:00,36.1,27.7,30.70,NW,315,3.1,5.4,71,0.00,,,0.00,pywws,2013-02-04 05:05:00,
2013-02-04 06:09:00,35.4,27.0,30.69,NW,315,3.1,5.4,71,0.00,,,0.00,pywws,2013-02-04 05:09:00,
2013-02-04 06:14:00,35.2,27.1,30.70,North,0,1.6,3.1,72,0.00,,,0.00,pywws,2013-02-04 05:14:00,
2013-02-04 06:19:00,36.5,28.3,30.70,NE,45,2.2,3.8,72,0.00,,,0.00,pywws,2013-02-04 05:19:00,
2013-02-04 06:24:00,36.3,28.2,30.69,North,0,1.6,3.1,72,0.00,,,0.00,pywws,2013-02-04 05:24:00,
2013-02-04 06:29:00,35.6,27.5,30.69,NW,315,3.1,5.4,72,0.00,,,0.00,pywws,2013-02-04 05:29:00,
2013-02-04 06:34:00,35.6,27.5,30.69,NW,315,0.7,3.1,72,0.00,,,0.00,pywws,2013-02-04 05:34:00,
2013-02-04 06:39:00,35.4,27.0,30.70,North,0,1.6,2.2,71,0.00,,,0.00,pywws,2013-02-04 05:39:00,
2013-02-04 06:44:00,36.1,27.7,30.69,North,0,3.1,4.5,71,0.00,,,0.00,pywws,2013-02-04 05:44:00,
2013-02-04 06:49:00,36.1,27.3,30.69,NNE,22,3.1,4.5,70,0.00,,,0.00,pywws,2013-02-04 05:49:00,
2013-02-04 07:03:00,36.0,27.1,30.69,NE,45,3.1,4.5,70,0.00,,,0.00,pywws,2013-02-04 06:03:00,
2013-02-04 07:04:00,36.3,27.5,30.69,NE,45,3.1,6.0,70,0.00,,,0.00,pywws,2013-02-04 06:04:00,
2013-02-04 07:09:00,35.6,26.8,30.70,North,0,1.6,5.4,70,0.00,,,0.00,pywws,2013-02-04 06:09:00,
2013-02-04 07:14:00,36.0,27.1,30.70,North,0,2.2,3.8,70,0.00,,,0.00,pywws,2013-02-04 06:14:00,
2013-02-04 07:19:00,36.5,28.0,30.70,NW,315,2.2,3.8,71,0.00,,,0.00,pywws,2013-02-04 06:19:00,
2013-02-04 07:24:00,35.6,27.1,30.70,NW,315,2.2,3.8,71,0.00,,,0.00,pywws,2013-02-04 06:24:00,
2013-02-04 07:29:00,35.6,27.5,30.70,NW,315,2.2,4.5,72,0.00,,,0.00,pywws,2013-02-04 06:29:00,
2013-02-04 07:34:00,35.2,27.1,30.70,NW,315,3.1,5.4,72,0.00,,,0.00,pywws,2013-02-04 06:34:00,
2013-02-04 07:39:00,34.9,27.1,30.70,North,0,1.6,3.8,73,0.00,,,0.00,pywws,2013-02-04 06:39:00,
2013-02-04 07:44:00,36.0,28.5,30.70,NW,315,2.2,5.4,74,0.00,,,0.00,pywws,2013-02-04 06:44:00,
2013-02-04 07:49:00,35.4,28.0,30.71,North,0,1.6,3.8,74,0.00,,,0.00,pywws,2013-02-04 06:49:00,
2013-02-04 07:54:00,35.8,28.3,30.70,North,0,3.1,5.4,74,0.00,,,0.00,pywws,2013-02-04 06:54:00,
2013-02-04 08:04:00,34.7,27.3,30.70,North,0,3.1,5.4,74,0.00,,,0.00,pywws,2013-02-04 07:04:00,
2013-02-04 08:09:00,39.7,30.8,30.71,NW,315,3.1,4.5,70,0.00,,,0.00,pywws,2013-02-04 07:09:00,
2013-02-04 08:14:00,40.5,30.4,30.70,NW,315,2.2,4.5,67,0.00,,,0.00,pywws,2013-02-04 07:14:00,
2013-02-04 08:19:00,41.4,30.5,30.70,NW,315,3.1,5.4,65,0.00,,,0.00,pywws,2013-02-04 07:19:00,
2013-02-04 08:24:00,41.7,30.5,30.70,NW,315,4.5,6.9,64,0.00,,,0.00,pywws,2013-02-04 07:24:00,
2013-02-04 08:29:00,41.4,30.1,30.70,West,270,2.2,5.4,64,0.00,,,0.00,pywws,2013-02-04 07:29:00,
2013-02-04 08:34:00,41.4,30.1,30.71,North,0,4.5,7.6,64,0.00,,,0.00,pywws,2013-02-04 07:34:00,
2013-02-04 08:39:00,40.8,29.6,30.71,NE,45,2.2,3.1,64,0.00,,,0.00,pywws,2013-02-04 07:39:00,
2013-02-04 08:44:00,42.3,30.6,30.71,NW,315,3.1,4.5,63,0.00,,,0.00,pywws,2013-02-04 07:44:00,
2013-02-04 08:49:00,42.3,30.2,30.71,North,0,1.6,3.1,62,0.00,,,0.00,pywws,2013-02-04 07:49:00,
2013-02-04 08:54:00,43.7,31.1,30.72,NW,315,1.6,3.1,61,0.00,,,0.00,pywws,2013-02-04 07:54:00,
2013-02-04 09:04:00,43.9,31.3,30.72,NNW,338,3.1,5.4,61,0.00,,,0.00,pywws,2013-02-04 08:04:00,
2013-02-04 09:09:00,44.2,31.2,30.73,NW,315,3.1,4.5,60,0.00,,,0.00,pywws,2013-02-04 08:09:00,
2013-02-04 09:14:00,43.9,31.3,30.73,NW,315,4.5,7.6,61,0.00,,,0.00,pywws,2013-02-04 08:14:00,
2013-02-04 09:19:00,43.3,30.4,30.73,NW,315,5.4,9.2,60,0.00,,,0.00,pywws,2013-02-04 08:19:00,
2013-02-04 09:24:00,43.0,30.1,30.74,North,0,6.0,9.8,60,0.00,,,0.00,pywws,2013-02-04 08:24:00,
2013-02-04 09:29:00,42.8,29.9,30.75,North,0,2.2,6.9,60,0.00,,,0.00,pywws,2013-02-04 08:29:00,
2013-02-04 09:34:00,43.5,31.0,30.75,NW,315,3.8,6.0,61,0.00,,,0.00,pywws,2013-02-04 08:34:00,
2013-02-04 09:39:00,44.2,31.2,30.75,NW,315,3.8,6.9,60,0.00,,,0.00,pywws,2013-02-04 08:39:00,
2013-02-04 09:44:00,44.4,31.0,30.75,NW,315,3.8,8.3,59,0.00,,,0.00,pywws,2013-02-04 08:44:00,
2013-02-04 09:49:00,44.2,30.4,30.75,North,0,4.5,7.6,58,0.00,,,0.00,pywws,2013-02-04 08:49:00,
2013-02-04 09:54:00,45.5,31.2,30.75,North,0,4.5,6.9,57,0.00,,,0.00,pywws,2013-02-04 08:54:00,
2013-02-04 10:04:00,44.4,29.7,30.75,West,270,5.4,8.3,56,0.00,,,0.00,pywws,2013-02-04 09:04:00,
2013-02-04 10:09:00,46.0,31.2,30.75,NW,315,3.8,6.9,56,0.00,,,0.00,pywws,2013-02-04 09:09:00,
2013-02-04 10:14:00,46.0,31.2,30.75,West,270,3.8,6.0,56,0.00,,,0.00,pywws,2013-02-04 09:14:00,
2013-02-04 10:19:00,47.8,32.0,30.76,NNW,338,3.8,6.9,54,0.00,,,0.00,pywws,2013-02-04 09:19:00,
2013-02-04 10:24:00,46.9,31.6,30.76,WNW,292,3.8,5.4,55,0.00,,,0.00,pywws,2013-02-04 09:24:00,
2013-02-04 10:29:00,47.1,31.8,30.76,NE,45,2.2,4.5,55,0.00,,,0.00,pywws,2013-02-04 09:29:00,
2013-02-04 10:34:00,47.8,31.5,30.77,North,0,1.6,5.4,53,0.00,,,0.00,pywws,2013-02-04 09:34:00,
2013-02-04 10:39:00,48.4,31.6,30.77,NW,315,3.1,4.5,52,0.00,,,0.00,pywws,2013-02-04 09:39:00,
2013-02-04 10:44:00,48.9,32.5,30.76,NW,315,0.7,2.2,53,0.00,,,0.00,pywws,2013-02-04 09:44:00,
2013-02-04 10:49:00,50.0,32.1,30.77,NNW,338,4.5,6.0,50,0.00,,,0.00,pywws,2013-02-04 09:49:00,
2013-02-04 11:03:00,48.6,30.3,30.78,NW,315,3.8,5.4,49,0.00,,,0.00,pywws,2013-02-04 10:03:00,
2013-02-04 11:04:00,50.2,32.8,30.78,WNW,292,3.1,5.4,51,0.00,,,0.00,pywws,2013-02-04 10:04:00,
2013-02-04 11:09:00,50.4,32.4,30.78,NW,315,3.1,4.5,50,0.00,,,0.00,pywws,2013-02-04 10:09:00,
2013-02-04 11:14:00,50.5,32.1,30.78,West,270,2.2,4.5,49,0.00,,,0.00,pywws,2013-02-04 10:14:00,
2013-02-04 11:19:00,53.1,33.9,30.78,North,0,1.6,3.1,48,0.00,,,0.00,pywws,2013-02-04 10:19:00,
2013-02-04 11:24:00,53.4,32.6,30.78,North,0,1.6,3.1,45,0.00,,,0.00,pywws,2013-02-04 10:24:00,
2013-02-04 11:29:00,54.0,33.1,30.78,NW,315,2.2,3.8,45,0.00,,,0.00,pywws,2013-02-04 10:29:00,
2013-02-04 11:34:00,53.2,30.7,30.78,West,270,2.2,4.5,42,0.00,,,0.00,pywws,2013-02-04 10:34:00,
2013-02-04 11:39:00,52.7,30.8,30.77,NW,315,1.6,3.1,43,0.00,,,0.00,pywws,2013-02-04 10:39:00,
2013-02-04 11:44:00,52.7,30.8,30.77,NW,315,2.2,4.5,43,0.00,,,0.00,pywws,2013-02-04 10:44:00,
2013-02-04 11:49:00,53.2,30.2,30.77,NW,315,2.2,4.5,41,0.00,,,0.00,pywws,2013-02-04 10:49:00,
2013-02-04 11:54:00,53.6,29.9,30.77,NW,315,1.6,3.8,40,0.00,,,0.00,pywws,2013-02-04 10:54:00,
2013-02-04 12:04:00,52.9,29.2,30.77,West,270,2.2,3.8,40,0.00,,,0.00,pywws,2013-02-04 11:04:00,
2013-02-04 12:09:00,56.7,32.0,30.39,NW,315,0.7,1.6,39,0.00,,,0.00,pywws,2013-02-04 11:09:00,
2013-02-04 12:14:00,55.8,27.1,30.39,North,0,1.6,3.8,33,0.00,,,0.00,pywws,2013-02-04 11:14:00,
2013-02-04 12:19:00,55.9,28.7,30.39,NW,315,1.6,3.1,35,0.00,,,0.00,pywws,2013-02-04 11:19:00,
2013-02-04 12:24:00,54.9,23.2,30.39,North,0,4.5,7.6,29,0.00,,,0.00,pywws,2013-02-04 11:24:00,
2013-02-04 12:29:00,55.0,25.0,30.39,North,0,2.2,4.5,31,0.00,,,0.00,pywws,2013-02-04 11:29:00,
2013-02-04 12:34:00,55.2,24.3,30.39,NW,315,4.5,6.9,30,0.00,,,0.00,pywws,2013-02-04 11:34:00,
2013-02-04 12:39:00,54.5,25.3,30.39,NW,315,4.5,8.3,32,0.00,,,0.00,pywws,2013-02-04 11:39:00,
2013-02-04 12:44:00,55.0,25.7,30.38,NW,315,3.8,7.6,32,0.00,,,0.00,pywws,2013-02-04 11:44:00,
2013-02-04 12:49:00,54.9,25.6,30.39,NW,315,1.6,3.8,32,0.00,,,0.00,pywws,2013-02-04 11:49:00,
2013-02-04 12:54:00,55.9,27.3,30.38,NW,315,2.2,4.5,33,0.00,,,0.00,pywws,2013-02-04 11:54:00,
2013-02-04 13:04:00,55.6,27.7,30.38,North,0,3.1,5.4,34,0.00,,,0.00,pywws,2013-02-04 12:04:00,
2013-02-04 13:09:00,54.5,25.3,30.76,North,0,4.5,7.6,32,0.00,,,0.00,pywws,2013-02-04 12:09:00,
2013-02-04 13:14:00,55.4,26.0,30.76,WNW,292,7.6,10.7,32,0.00,,,0.00,pywws,2013-02-04 12:14:00,
2013-02-04 13:19:00,55.8,28.5,30.75,West,270,3.1,4.5,35,0.00,,,0.00,pywws,2013-02-04 12:19:00,
2013-02-04 13:24:00,56.8,30.2,30.76,NW,315,3.1,6.9,36,0.00,,,0.00,pywws,2013-02-04 12:24:00,
2013-02-04 13:29:00,55.9,28.7,30.75,NW,315,3.1,6.0,35,0.00,,,0.00,pywws,2013-02-04 12:29:00,
2013-02-04 13:34:00,55.9,28.7,30.76,West,270,3.8,6.9,35,0.00,,,0.00,pywws,2013-02-04 12:34:00,
2013-02-04 13:39:00,56.7,30.0,30.75,WNW,292,2.2,3.8,36,0.00,,,0.00,pywws,2013-02-04 12:39:00,
2013-02-04 13:44:00,56.8,29.5,30.75,West,270,4.5,7.6,35,0.00,,,0.00,pywws,2013-02-04 12:44:00,
2013-02-04 13:49:00,55.4,29.6,30.75,NW,315,5.4,8.3,37,0.00,,,0.00,pywws,2013-02-04 12:49:00,
2013-02-04 13:54:00,55.8,29.2,30.75,NW,315,3.8,6.9,36,0.00,,,0.00,pywws,2013-02-04 12:54:00,
2013-02-04 14:04:00,55.4,28.9,30.75,North,0,2.2,4.5,36,0.00,,,0.00,pywws,2013-02-04 13:04:00,
2013-02-04 14:09:00,57.6,31.5,30.75,NW,315,2.2,3.8,37,0.00,,,0.00,pywws,2013-02-04 13:09:00,
2013-02-04 14:14:00,57.9,30.4,30.75,NW,315,0.7,2.2,35,0.00,,,0.00,pywws,2013-02-04 13:14:00,
2013-02-04 14:19:00,59.0,29.9,30.75,NW,315,2.2,6.0,33,0.00,,,0.00,pywws,2013-02-04 13:19:00,
2013-02-04 14:24:00,58.6,28.1,30.75,WNW,292,1.6,4.5,31,0.00,,,0.00,pywws,2013-02-04 13:24:00,
2013-02-04 14:29:00,59.4,28.7,30.75,NW,315,2.2,4.5,31,0.00,,,0.00,pywws,2013-02-04 13:29:00,
2013-02-04 14:34:00,58.3,28.6,30.75,West,270,3.1,6.0,32,0.00,,,0.00,pywws,2013-02-04 13:34:00,
2013-02-04 14:39:00,57.9,29.7,30.75,West,270,3.8,5.4,34,0.00,,,0.00,pywws,2013-02-04 13:39:00,
2013-02-04 14:44:00,58.8,30.5,30.75,West,270,2.2,4.5,34,0.00,,,0.00,pywws,2013-02-04 13:44:00,
2013-02-04 14:49:00,58.6,30.4,30.75,NW,315,3.1,4.5,34,0.00,,,0.00,pywws,2013-02-04 13:49:00,
2013-02-04 14:54:00,58.8,30.5,30.75,NW,315,3.8,6.0,34,0.00,,,0.00,pywws,2013-02-04 13:54:00,
2013-02-04 15:04:00,58.3,30.0,30.75,West,270,3.8,5.4,34,0.00,,,0.00,pywws,2013-02-04 14:04:00,
2013-02-04 15:09:00,60.8,32.3,30.76,SW,225,3.8,6.0,34,0.00,,,0.00,pywws,2013-02-04 14:09:00,
2013-02-04 15:14:00,61.0,31.7,30.76,NNW,338,2.2,3.8,33,0.00,,,0.00,pywws,2013-02-04 14:14:00,
2013-02-04 15:19:00,61.0,32.4,30.76,SE,135,1.6,3.8,34,0.00,,,0.00,pywws,2013-02-04 14:19:00,
2013-02-04 15:24:00,61.0,33.1,30.76,SW,225,1.6,4.5,35,0.00,,,0.00,pywws,2013-02-04 14:24:00,
2013-02-04 15:29:00,61.5,36.3,30.76,SW,225,5.4,9.2,39,0.00,,,0.00,pywws,2013-02-04 14:29:00,
2013-02-04 15:34:00,60.6,36.8,30.76,NW,315,3.8,7.6,41,0.00,,,0.00,pywws,2013-02-04 14:34:00,
2013-02-04 15:39:00,58.5,36.6,30.76,SW,225,1.6,3.8,44,0.00,,,0.00,pywws,2013-02-04 14:39:00,
2013-02-04 15:44:00,57.9,37.3,30.76,North,0,1.6,3.1,46,0.00,,,0.00,pywws,2013-02-04 14:44:00,
2013-02-04 15:49:00,57.2,37.2,30.76,North,0,1.6,3.8,47,0.00,,,0.00,pywws,2013-02-04 14:49:00,
2013-02-04 15:54:00,57.6,36.9,30.76,WNW,292,3.1,6.0,46,0.00,,,0.00,pywws,2013-02-04 14:54:00,
2013-02-04 16:04:00,58.6,38.5,30.76,SW,225,2.2,5.4,47,0.00,,,0.00,pywws,2013-02-04 15:04:00,
2013-02-04 16:09:00,57.4,37.9,30.77,West,270,2.2,6.0,48,0.00,,,0.00,pywws,2013-02-04 15:09:00,
2013-02-04 16:14:00,56.3,37.4,30.76,West,270,2.2,5.4,49,0.00,,,0.00,pywws,2013-02-04 15:14:00,
2013-02-04 16:19:00,56.1,37.7,30.76,North,0,3.1,6.0,50,0.00,,,0.00,pywws,2013-02-04 15:19:00,
2013-02-04 16:24:00,56.1,38.2,30.76,SE,135,2.2,6.9,51,0.00,,,0.00,pywws,2013-02-04 15:24:00,
2013-02-04 16:29:00,56.8,39.4,30.76,NW,315,1.6,3.1,52,0.00,,,0.00,pywws,2013-02-04 15:29:00,
2013-02-04 16:34:00,57.2,40.2,30.76,West,270,2.2,4.5,53,0.00,,,0.00,pywws,2013-02-04 15:34:00,
2013-02-04 16:39:00,56.7,39.7,30.77,SW,225,1.6,3.1,53,0.00,,,0.00,pywws,2013-02-04 15:39:00,
2013-02-04 16:44:00,54.7,38.8,30.77,SW,225,1.6,4.5,55,0.00,,,0.00,pywws,2013-02-04 15:44:00,
2013-02-04 16:49:00,53.1,38.7,30.76,NNW,338,0.7,3.1,58,0.00,,,0.00,pywws,2013-02-04 15:49:00,
2013-02-04 17:03:00,52.0,38.1,30.76,SW,225,0.0,1.6,59,0.00,,,0.00,pywws,2013-02-04 16:03:00,
2013-02-04 17:05:00,50.9,38.4,30.39,NW,315,0.7,2.2,62,0.00,,,0.00,pywws,2013-02-04 16:05:00,
2013-02-04 17:10:00,50.5,38.8,30.40,SE,135,0.7,3.8,64,0.00,,,0.00,pywws,2013-02-04 16:10:00,
2013-02-04 17:15:00,50.4,38.6,30.40,SW,225,0.7,3.8,64,0.00,,,0.00,pywws,2013-02-04 16:15:00,
2013-02-04 17:21:00,50.2,38.9,30.40,South,180,0.7,2.2,65,0.00,,,0.00,pywws,2013-02-04 16:21:00,
2013-02-04 17:26:00,49.3,38.4,30.40,West,270,0.0,0.7,66,0.00,,,0.00,pywws,2013-02-04 16:26:00,
2013-02-04 17:31:00,49.5,39.0,30.40,SSW,202,0.0,1.6,67,0.00,,,0.00,pywws,2013-02-04 16:31:00,
2013-02-04 17:37:00,48.7,38.3,30.40,South,180,1.6,3.1,67,0.00,,,0.00,pywws,2013-02-04 16:37:00,
2013-02-04 17:42:00,48.9,38.5,30.40,NW,315,0.0,1.6,67,0.00,,,0.00,pywws,2013-02-04 16:42:00,
2013-02-04 17:47:00,48.6,38.5,30.40,South,180,0.7,3.1,68,0.00,,,0.00,pywws,2013-02-04 16:47:00,
2013-02-04 17:53:00,48.7,39.0,30.41,West,270,1.6,2.2,69,0.00,,,0.00,pywws,2013-02-04 16:53:00,
2013-02-04 18:03:00,48.9,39.2,30.40,SE,135,1.6,2.2,69,0.00,,,0.00,pywws,2013-02-04 17:03:00,
2013-02-04 18:09:00,48.2,38.5,30.41,NE,45,0.0,0.0,69,0.00,,,0.00,pywws,2013-02-04 17:09:00,
2013-02-04 18:14:00,48.2,38.5,30.42,South,180,1.6,3.1,69,0.00,,,0.00,pywws,2013-02-04 17:14:00,
2013-02-04 18:19:00,48.0,38.3,30.42,SW,225,0.7,2.2,69,0.00,,,0.00,pywws,2013-02-04 17:19:00,
2013-02-04 18:25:00,48.2,38.9,30.42,NE,45,0.7,2.2,70,0.00,,,0.00,pywws,2013-02-04 17:25:00,
2013-02-04 18:30:00,47.5,38.9,30.42,NE,45,1.6,3.8,72,0.00,,,0.00,pywws,2013-02-04 17:30:00,
2013-02-04 18:35:00,47.3,39.1,30.42,NE,45,1.6,2.2,73,0.00,,,0.00,pywws,2013-02-04 17:35:00,
2013-02-04 18:41:00,46.0,38.6,30.42,East,90,0.7,3.1,75,0.00,,,0.00,pywws,2013-02-04 17:41:00,
2013-02-04 18:46:00,46.8,39.6,30.42,East,90,2.2,3.8,76,0.00,,,0.00,pywws,2013-02-04 17:46:00,
2013-02-04 18:51:00,45.9,38.7,30.43,East,90,2.2,4.5,76,0.00,,,0.00,pywws,2013-02-04 17:51:00,
2013-02-04 19:02:00,45.3,38.5,30.81,East,90,2.2,3.8,77,0.00,,,0.00,pywws,2013-02-04 18:02:00,
2013-02-04 19:04:00,46.4,39.6,30.43,SE,135,2.2,4.5,77,0.00,,,0.00,pywws,2013-02-04 18:04:00,
2013-02-04 19:07:00,45.5,38.7,30.81,East,90,2.2,3.8,77,0.00,,,0.00,pywws,2013-02-04 18:07:00,
2013-02-04 19:13:00,44.2,37.5,30.81,East,90,1.6,3.1,77,0.00,,,0.00,pywws,2013-02-04 18:13:00,
2013-02-04 19:18:00,45.3,38.5,30.81,East,90,1.6,2.2,77,0.00,,,0.00,pywws,2013-02-04 18:18:00,
2013-02-04 19:23:00,45.7,38.9,30.81,East,90,3.8,6.9,77,0.00,,,0.00,pywws,2013-02-04 18:23:00,
2013-02-04 19:29:00,44.2,37.5,30.81,NE,45,2.2,4.5,77,0.00,,,0.00,pywws,2013-02-04 18:29:00,
2013-02-04 19:34:00,44.4,37.3,30.81,East,90,1.6,3.1,76,0.00,,,0.00,pywws,2013-02-04 18:34:00,
2013-02-04 19:39:00,45.0,38.2,30.81,East,90,1.6,3.8,77,0.00,,,0.00,pywws,2013-02-04 18:39:00,
2013-02-04 19:45:00,44.2,37.5,30.81,East,90,3.1,3.8,77,0.00,,,0.00,pywws,2013-02-04 18:45:00,
2013-02-04 19:50:00,45.0,38.5,30.81,East,90,3.1,5.4,78,0.00,,,0.00,pywws,2013-02-04 18:50:00,
2013-02-04 20:03:00,43.9,37.5,30.81,East,90,2.2,3.1,78,0.00,,,0.00,pywws,2013-02-04 19:03:00,
2013-02-04 20:05:00,44.2,37.5,30.43,East,90,3.8,5.4,77,0.00,,,0.00,pywws,2013-02-04 19:05:00,
2013-02-04 20:10:00,44.1,37.6,30.43,East,90,2.2,4.5,78,0.00,,,0.00,pywws,2013-02-04 19:10:00,
2013-02-04 20:15:00,44.1,37.6,30.43,SE,135,2.2,4.5,78,0.00,,,0.00,pywws,2013-02-04 19:15:00,
2013-02-04 20:21:00,43.9,37.5,30.43,East,90,1.6,3.1,78,0.00,,,0.00,pywws,2013-02-04 19:21:00,
2013-02-04 20:26:00,44.2,37.8,30.43,NE,45,1.6,4.5,78,0.00,,,0.00,pywws,2013-02-04 19:26:00,
2013-02-04 20:31:00,44.2,37.8,30.43,East,90,2.2,3.8,78,0.00,,,0.00,pywws,2013-02-04 19:31:00,
2013-02-04 20:36:00,43.7,37.3,30.42,East,90,2.2,3.1,78,0.00,,,0.00,pywws,2013-02-04 19:36:00,
2013-02-04 20:41:00,43.5,37.1,30.42,East,90,3.1,5.4,78,0.00,,,0.00,pywws,2013-02-04 19:41:00,
2013-02-04 20:46:00,43.7,37.3,30.42,East,90,2.2,3.1,78,0.00,,,0.00,pywws,2013-02-04 19:46:00,
2013-02-04 20:51:00,43.7,37.3,30.42,SE,135,2.2,3.8,78,0.00,,,0.00,pywws,2013-02-04 19:51:00,
2013-02-04 21:01:00,44.2,38.1,30.79,East,90,2.2,3.8,79,0.00,,,0.00,pywws,2013-02-04 20:01:00,
2013-02-04 21:03:00,44.1,37.6,30.41,SE,135,1.6,3.8,78,0.00,,,0.00,pywws,2013-02-04 20:03:00,
2013-02-04 21:06:00,43.3,36.9,30.79,NE,45,0.7,1.6,78,0.00,,,0.00,pywws,2013-02-04 20:06:00,
2013-02-04 21:11:00,43.5,37.4,30.78,NE,45,1.6,3.8,79,0.00,,,0.00,pywws,2013-02-04 20:11:00,
2013-02-04 21:16:00,42.6,36.6,30.78,East,90,2.2,4.5,79,0.00,,,0.00,pywws,2013-02-04 20:16:00,
2013-02-04 21:21:00,43.2,37.1,30.78,SE,135,2.2,3.8,79,0.00,,,0.00,pywws,2013-02-04 20:21:00,
2013-02-04 21:26:00,43.5,37.1,30.78,East,90,2.2,4.5,78,0.00,,,0.00,pywws,2013-02-04 20:26:00,
2013-02-04 21:31:00,43.7,37.3,30.79,NE,45,1.6,3.8,78,0.00,,,0.00,pywws,2013-02-04 20:31:00,
2013-02-04 21:36:00,42.6,36.2,30.80,East,90,2.2,3.8,78,0.00,,,0.00,pywws,2013-02-04 20:36:00,
2013-02-04 21:41:00,42.8,36.7,30.80,East,90,3.1,5.4,79,0.00,,,0.00,pywws,2013-02-04 20:41:00,
2013-02-04 21:46:00,43.0,36.6,30.81,SE,135,3.8,5.4,78,0.00,,,0.00,pywws,2013-02-04 20:46:00,
2013-02-04 21:51:00,42.4,36.1,30.81,East,90,3.1,5.4,78,0.00,,,0.00,pywws,2013-02-04 20:51:00,
2013-02-04 22:01:00,43.3,36.6,30.81,ESE,112,3.1,4.5,77,0.00,,,0.00,pywws,2013-02-04 21:01:00,
2013-02-04 22:04:00,43.2,36.4,30.81,SE,135,3.1,6.0,77,0.00,,,0.00,pywws,2013-02-04 21:04:00,
2013-02-04 22:06:00,43.2,36.4,30.81,East,90,2.2,4.5,77,0.00,,,0.00,pywws,2013-02-04 21:06:00,
2013-02-04 22:11:00,42.6,35.9,30.81,NE,45,3.1,4.5,77,0.00,,,0.00,pywws,2013-02-04 21:11:00,
2013-02-04 22:16:00,42.6,35.9,30.81,East,90,2.2,3.1,77,0.00,,,0.00,pywws,2013-02-04 21:16:00,
2013-02-04 22:21:00,42.4,35.7,30.81,NE,45,3.1,4.5,77,0.00,,,0.00,pywws,2013-02-04 21:21:00,
2013-02-04 22:26:00,42.3,35.9,30.81,East,90,3.8,6.9,78,0.00,,,0.00,pywws,2013-02-04 21:26:00,
2013-02-04 22:31:00,42.6,36.6,30.81,East,90,3.1,3.8,79,0.00,,,0.00,pywws,2013-02-04 21:31:00,
2013-02-04 22:36:00,41.2,34.9,30.81,SE,135,3.8,5.4,78,0.00,,,0.00,pywws,2013-02-04 21:36:00,
2013-02-04 22:41:00,42.3,35.9,30.81,SE,135,2.2,3.8,78,0.00,,,0.00,pywws,2013-02-04 21:41:00,
2013-02-04 22:46:00,41.9,35.2,30.80,East,90,3.1,4.5,77,0.00,,,0.00,pywws,2013-02-04 21:46:00,
2013-02-04 22:51:00,42.4,35.7,30.81,East,90,1.6,3.8,77,0.00,,,0.00,pywws,2013-02-04 21:51:00,
2013-02-04 23:01:00,43.0,36.3,30.81,East,90,2.2,3.1,77,0.00,,,0.00,pywws,2013-02-04 22:01:00,
2013-02-04 23:04:00,42.8,36.1,30.81,East,90,2.2,5.4,77,0.00,,,0.00,pywws,2013-02-04 22:04:00,
2013-02-04 23:06:00,42.4,35.7,30.81,SE,135,3.1,5.4,77,0.00,,,0.00,pywws,2013-02-04 22:06:00,
2013-02-04 23:11:00,42.6,35.6,30.81,SE,135,2.2,4.5,76,0.00,,,0.00,pywws,2013-02-04 22:11:00,
2013-02-04 23:16:00,43.0,35.9,30.82,East,90,3.1,3.8,76,0.00,,,0.00,pywws,2013-02-04 22:16:00,
2013-02-04 23:21:00,41.9,34.9,30.81,East,90,2.2,3.8,76,0.00,,,0.00,pywws,2013-02-04 22:21:00,
2013-02-04 23:26:00,42.8,35.8,30.82,East,90,2.2,3.8,76,0.00,,,0.00,pywws,2013-02-04 22:26:00,
2013-02-04 23:31:00,42.6,35.6,30.81,SE,135,2.2,3.8,76,0.00,,,0.00,pywws,2013-02-04 22:31:00,
2013-02-04 23:36:00,42.6,35.6,30.82,ESE,112,2.2,4.5,76,0.00,,,0.00,pywws,2013-02-04 22:36:00,
2013-02-04 23:41:00,42.8,35.8,30.82,East,90,0.7,2.2,76,0.00,,,0.00,pywws,2013-02-04 22:41:00,
2013-02-04 23:46:00,41.9,35.2,30.82,NE,45,0.7,3.1,77,0.00,,,0.00,pywws,2013-02-04 22:46:00,
2013-02-04 23:51:00,42.1,35.7,30.82,SE,135,3.1,6.0,78,0.00,,,0.00,pywws,2013-02-04 22:51:00,